sat.trackr.live / text

‹ back to catalog

STARLINK-33590

NORAD 64316 · 2025-123AB

PAYLOAD ACTIVE UNKNOWN

§ Identity

Operator
Country
US
Launch date
2025-06-08
Launch site
AFWTR
Launch vehicle
Mass (kg)
RCS (m²)

Purposes: comms

External: N2YO · Heavens-Above · Gunter

§ Orbital elements

Epoch: 2026-09-20T13:52:45.780960Z

Period
94.14 min
Inclination
69.9991°
Eccentricity
0.0003624
Mean motion
15.29594153 rev/d
Perigee alt
474.5 km
Apogee alt
479.5 km
Semi-major
6,855.2 km
B*
3.5872e-4
RAAN
60.5675°
Arg perigee
263.7600°
Mean anomaly
96.3162°
Rev number
7,087

§ Raw data

STARLINK-335901 64316U 25123AB  26263.57830765  .00010203  00000+0  35872-3 0  99962 64316  69.9991  60.5675 0003624 263.7600  96.3162 15.29594153 70876

JSON: /api/v1/satellites/64316 · /tle

For live sub-satellite position, see the globe view (requires WebGL).

§ Visibility from observer

Set your observer location to see the next 7 days of passes ≥ 10°. The values pass through the URL so the page stays shareable.

No JS? Fill the form by hand. The geolocation button needs JavaScript.